Location: Mana�l
(15.0115°N, 12.5022°W)
Time: 12:26:31
(UTC+00:00)

USA 234 - Pass Details

Date: 07 June 2020
Orbit: 1102 x 1106 km, 123.0° (Epoch: 14 May)

Event Time Altitude Azimuth Distance (km) Brightness Sun altitude
Rises 04:30:39 0° 39° (NE) 3,910 7.4 -23.9°
Reaches altitude 10° 04:33:08 10° 40° (NE) 2,951 6.5 -23.4°
Maximum altitude 04:39:40 79° 127° (SE) 1,119 3.2 -22.1°
Enters shadow 04:42:56 32° 210° (SSW) 1,773 3.9 -21.4°
